Location: Gniezno
(52.5278°N, 17.6011°E)
Time: 10:57:31
(UTC+02:00)

ISS - Visible Passes

Search period start: 22 September 2018 00:00
Search period end: 02 October 2018 00:00
Orbit: 403 x 408 km, 51.6° (Epoch: 22 September)

Date Brightness Start Highest point End Pass type
(mag) Time Alt. Az. Time Alt. Az. Time Alt. Az.
22 Sep -1.5 20:28:15 10° S 20:28:51 13° S 20:28:51 13° S visible
23 Sep -1.6 19:37:46 10° SSE 19:38:51 11° SE 19:39:35 11° SE visible
23 Sep -1.3 21:11:35 10° SW 21:12:17 15° SW 21:12:17 15° SW visible
24 Sep -2.8 20:20:01 10° SSW 20:22:49 28° SSE 20:22:49 28° SSE visible
25 Sep -2.2 19:28:40 10° SSW 19:31:10 20° SE 19:33:12 12° ESE visible
25 Sep -2.3 21:03:59 10° WSW 21:05:53 30° SW 21:05:53 30° SW visible
26 Sep -3.4 20:12:13 10° SW 20:15:22 45° SSE 20:16:08 37° ESE visible
26 Sep -0.7 21:48:26 10° W 21:48:49 13° W 21:48:49 13° W visible
27 Sep -2.9 19:20:32 10° SW 19:23:32 33° SSE 19:26:17 12° E visible
27 Sep -3.0 20:56:30 10° WSW 20:58:57 46° WSW 20:58:57 46° WSW visible
28 Sep -3.8 20:04:36 10° WSW 20:07:52 63° SSE 20:09:02 35° E visible
28 Sep -0.9 21:41:00 10° W 21:41:42 15° W 21:41:42 15° W visible
29 Sep -3.4 19:12:45 10° WSW 19:15:56 50° SSE 19:19:03 11° E visible
29 Sep -3.2 20:49:02 10° W 20:51:43 55° WSW 20:51:43 55° WSW visible
30 Sep -3.9 19:57:03 10° W 20:00:22 76° S 20:01:42 33° E visible
30 Sep -1.0 21:33:31 10° W 21:34:21 16° W 21:34:21 16° W visible
01 Oct -3.7 19:05:06 10° WSW 19:08:23 68° S 19:11:39 10° E visible
01 Oct -3.3 20:41:31 10° W 20:44:19 56° WSW 20:44:19 56° WSW visible
